#timestamp,LO_Frequency,Hit,StdDev 
1505610015.4,286046999.7,N
1505610035.3,286047000.9,N
1505610055.1,286046998.3,N
1505610075.8,286046999.7,N
1505610095.7,286047001.7,N
1505610115.5,286046998.5,N
1505610135.3,286046997.4,N
1505610155.2,286046997.5,N
1505610175.9,286046995.1,N
1505610195.7,286046999.6,N
1505610215.6,286046997.3,N
1505610235.4,286046994.7,N
1505610255.2,286046996.2,N
1505610275.1,286047000.3,N
1505610276.0,286047000.3,N
1505610295.8,286047005.1,N
1505610315.6,286047005.4,N
1505610335.4,286047008.0,N
1505610355.3,286047013.3,Y
1505610375.1,286047016.5,P
1505610395.9,286047019.5,N
1505610415.7,286047021.9,N
1505610435.5,286047021.3,N
1505610455.3,286047020.9,N
1505610475.2,286047021.7,N
1505610495.0,286047023.4,Y
1505610495.9,286047023.4,P
1505610515.8,286047005.6,N
1505610535.6,286047005.5,N
1505610555.4,286047006.7,N
1505610575.2,286047008.1,N
1505610595.1,286047012.1,N
1505610596.0,286047012.1,N
1505610615.8,286047013.7,N
1505610635.6,286047008.3,N
1505610655.5,286047009.2,N
1505610675.3,286047006.2,N
1505610695.1,286047008.2,N
1505610715.9,286047008.8,N
1505610735.7,286047010.3,N
1505610755.5,286047007.8,N
1505610775.4,286047004.6,N
1505610795.2,286047006.7,N
1505610815.0,286047007.5,N
1505610815.9,286047007.5,N
1505610835.8,286047007.2,N
1505610855.6,286047006.0,N
1505610875.4,286047005.3,N
1505610895.2,286047008.0,N
1505610915.1,286047008.1,N
1505610916.0,286047008.1,N
1505610935.8,286047006.2,N
1505610955.6,286047011.3,N
1505610975.5,286047013.9,Y
1505610995.3,286047005.0,P
1505611015.1,286047005.5,N
1505611035.9,286047000.0,N
1505611055.7,286046999.8,N
1505611075.5,286047004.2,N
1505611095.4,286047004.3,N
1505611115.2,286047002.8,N
1505611135.0,286047001.0,N
1505611135.9,286047001.0,N
1505611155.8,286047002.5,N
1505611175.6,286047000.6,N
1505611195.6,286046997.1,N
1505611215.5,286046998.4,N
1505611235.3,286047000.3,N
1505611255.1,286046997.6,N
1505611275.9,286046995.9,N
1505611295.7,286046991.8,N
1505611315.5,286046996.0,N
1505611335.3,286046994.7,N
1505611355.2,286046993.0,N
1505611375.0,286046993.0,N
1505611375.9,286046993.0,N
1505611395.7,286046991.8,N
1505611415.6,286046993.0,N
1505611435.4,286046991.0,N
1505611455.2,286046988.6,N
1505611475.1,286046990.7,N
1505611476.0,286046990.7,N
1505611495.8,286046988.6,N
1505611515.6,286046989.0,N
1505611535.5,286046988.9,N
1505611555.3,286046989.0,N
1505611575.1,286046989.7,N
1505611595.9,286046989.4,N
1505611615.7,286046991.5,N
1505611635.5,286046991.2,N
1505611655.4,286046988.5,N
1505611675.2,286046987.1,N
1505611695.0,286046988.9,N
1505611695.9,286046988.9,N
1505611715.8,286046989.6,N
1505611735.6,286046989.7,Y
1505611755.4,286046996.1,P
1505611775.3,286046995.7,N
1505611795.1,286046996.3,N
1505611796.0,286046996.3,N
1505611815.8,286046992.2,Y
1505611835.7,286046998.7,P
1505611855.5,286047002.0,N
1505611875.3,286047005.6,N
1505611895.2,286047005.1,N
1505611915.9,286047006.3,N
1505611935.7,286047007.0,N
1505611955.5,286047006.3,N
1505611975.4,286047008.3,N
1505611995.2,286047006.3,N
1505612015.0,286047007.0,N
1505612015.9,286047007.0,N
1505612035.8,286047004.2,N
1505612055.6,286047002.7,N
1505612075.4,286047004.5,N
1505612095.3,286047007.0,N
1505612115.1,286047005.6,N
1505612116.0,286047005.6,N
1505612135.8,286047002.5,N
1505612155.7,286046999.8,N
1505612175.5,286047002.2,N
1505612195.3,286046998.2,N
1505612215.1,286047001.1,N
1505612235.9,286046996.6,N
1505612255.7,286046998.6,N
1505612275.5,286047000.3,N
1505612295.4,286046998.9,N
1505612315.2,286046996.7,N
1505612335.0,286046999.2,N
1505612335.9,286046999.2,N
1505612355.8,286046999.8,N
1505612375.6,286046995.2,N
1505612395.4,286046991.3,N
1505612415.3,286046992.8,N
1505612435.1,286046992.3,N
1505612436.0,286046992.3,N
1505612455.8,286046996.7,N
1505612475.7,286047000.6,N
1505612495.5,286047000.8,N
1505612515.3,286047004.0,N
1505612535.2,286047005.7,N
1505612555.9,286047005.1,N
1505612575.7,286047001.3,N
1505612595.5,286047003.8,N
1505612615.4,286047010.8,N
1505612635.2,286047012.1,N
1505612655.0,286047014.1,N
1505612655.9,286047014.1,N
1505612675.8,286047014.1,N
1505612695.6,286047018.5,N
1505612715.4,286047014.2,N
1505612735.3,286047015.8,N
1505612755.1,286047019.9,N
1505612775.8,286047019.4,N
1505612795.7,286047019.5,N
1505612815.5,286047020.3,N
1505612835.3,286047019.4,N
1505612855.2,286047017.3,N
1505612875.9,286047016.4,N
1505612895.7,286047016.5,N
1505612915.5,286047014.9,N
1505612935.4,286047018.0,N
1505612955.2,286047019.1,N
1505612975.0,286047016.5,N
1505612975.9,286047016.5,N
1505612995.8,286047017.2,N
1505613015.6,286047019.7,N
1505613035.4,286047021.6,Y
1505613055.3,286047005.5,P
1505613075.1,286047007.2,N
1505613095.8,286047006.6,N
1505613115.7,286047010.5,Y
1505613135.5,286047004.2,P
1505613155.3,286047001.3,N
1505613175.2,286047000.7,N
1505613195.0,286046995.8,N
1505613195.9,286046995.8,N
1505613215.7,286046992.2,N
1505613235.6,286046993.0,N
1505613255.4,286046991.2,N
1505613275.2,286046991.4,N
1505613295.1,286046988.9,N
1505613296.0,286046988.9,N
1505613315.8,286046988.0,N
1505613335.6,286046983.7,N
1505613355.5,286046979.3,Y
1505613375.3,286046985.2,P
1505613395.1,286046981.5,P
1505613415.9,286046977.8,P
1505613435.7,286046977.6,Y
1505613455.5,286046994.4,P
1505613475.4,286046991.9,N
1505613495.2,286046994.0,N
1505613515.0,286046993.3,N
1505613515.9,286046993.3,N
1505613535.8,286046994.3,N
1505613555.6,286046994.0,N
1505613575.4,286046994.7,N
1505613595.3,286046993.0,N
